Voltar ao catálogo

STARLINK-34424

AtivoComunicaçõesVLEO
NORAD 64295·PAYLOAD·🇺🇸 United States

Lançado Jun 8, 2025 de Vandenberg Space Force Base

Loading…

Próximas Passagens (próximas 24 horas)

TLE

AtualizadoSource: CelesTrak SupGP

Época: Sep 14, 2026, 20:42 UTC

1 64295C 25123E   26257.86298611  .00022509  00000+0  78315-3 0  2573
2 64295  70.0005  75.7557 0003293 273.8634 244.6274 15.29561601    12

Acompanhe STARLINK-34424 em tempo real com AllMySat

Download on the App Store